Regional Weather Roundup
Issued by NWS Newport/Morehead, NC

Current Version | Previous Version | Graphics & Text | Print | Product List | Glossary Off
Versions: 1 2 3 4 5 6 7 8 9 10 11 12 13 14 15 16 17 18 19 20 21 22 23 24 25 26 27 28 29 30 31 32 33 34 35 36 37 38 39 40 41 42 43 44 45 46 47 48 49 50

000
ASUS42 KMHX 010513
RWRMHX
WEATHER ROUNDUP FOR EASTERN NORTH CAROLINA
NATIONAL WEATHER SERVICE NEWPORT/MOREHEAD CITY NC
100 AM EDT SAT AUG 01 2015

NOTE: "FAIR" INDICATES FEW OR NO CLOUDS BELOW 12,000 FEET
WITH NO SIGNIFICANT WEATHER AND/OR OBSTRUCTIONS TO VISIBILITY

NCZ015>017-031-032-045>047-102-103-010600-
NORTH COAST

CITY           SKY/WX    TMP DP  RH WIND       PRES   REMARKS
EDENTON        PTCLDY    77  66  70 S7        29.94S
ELIZABETH CITY CLEAR     73  67  81 CALM      29.93F
KITTY HAWK     PTCLDY    77  65  68 CALM      29.93S
MANTEO         PTCLDY    72  67  83 CALM      29.94S

$$

NCZ045>047-081-094-103-104-010600-
CENTRAL COAST

CITY           SKY/WX    TMP DP  RH WIND       PRES   REMARKS
FRISCO         MOCLDY    79  72  79 SE7       29.95R
SWANQUARTER      N/A     77 N/A N/A E2        29.91S

$$

NCZ095-097-098-100-101-010600-
SOUTHERN COAST

CITY           SKY/WX    TMP DP  RH WIND       PRES   REMARKS
BEAUFORT       MOCLDY    78  77  96 SE3       29.95R
CEDAR ISLAND     N/A     79 N/A N/A S1        29.97S
JACKSONVILLE   CLOUDY    77  73  87 CALM      29.94R
PINEY ISLAND   PTCLDY   N/A N/A N/A S6        29.94R
WILMINGTON     CLOUDY    77  75  93 N3        29.94R


$$

NCZ011>013-027>030-043-044-078>080-089-090>093-098-010600-
COASTAL PLAIN

CITY           SKY/WX    TMP DP  RH WIND       PRES   REMARKS
AHOSKIE        CLEAR     69  67  93 CALM      29.94R
CLINTON        CLEAR     76  73  89 CALM      29.94S
ELIZABETHTOWN  CLEAR     75  73  92 CALM      29.94R
GOLDSBORO      CLEAR     77  67  70 W2        29.91R
GREENVILLE     PTCLDY    73  72  94 E3        29.95S
HAVELOCK       MOCLDY    75  73  93 CALM      29.96R
KENANSVILLE    CLEAR    N/A N/A N/A CALM      29.95R
KINSTON        CLEAR     77  73  85 E3        29.94R
NEW BERN       PTCLDY    75  72  90 CALM      29.96R
RICHLANDS      MOCLDY    73  66  78 SW3       29.95R
ROCKY MOUNT    CLEAR     72  65  78 CALM      29.94S
WASHINGTON     PTCLDY    74  72  92 E7        29.94S
WHITEVILLE     CLEAR     74  71  89 SE5       29.94R

$$

AMZ130-135-150-152-154-156-158-170-250-252-270-ANZ085-086-088-633-658-670-010600-
MARINE OBSERVATIONS

STATION/POSITION TIME  TEMP    WIND        PRES    WAVE   SWELL
                       AIR SEA DIR/SP/G            HT/PER HT/PER
                 (UTC) (F)     (DEG/KT/KT) (MB)    (FT/S) (FT/S)
CHESAPEAKE LIGHT 0500   79     230/  9/ 10 1013.8
64 E VA BEACH    0450   81 81  300/  4/  4 1012.9    3/ 9   3/ 9
DUCK             0400   80 66  140/  3/  3 1013.1
2 E DUCK         0411      80                N/A     2/ 4
OREGON INLET     0400   78 83  120/  2/  2 1013.7
13E OREGON INLT  0500      82                N/A     4/ 8
HATTERAS CG      0400   79 83   80/  4/  4 1013.5
DIAMOND BUOY     0450   81 85  140/  2/  4 1014.3    4/ 7   3/ 7
CAPE LOOKOUT     0500   77     210/  8/ 10 1013.8
BEAUFORT LAB     0400   78 83  100/  2/  3 1013.1
30 SE NEW RVR IN NOT AVBL
27 SE WRIGHTSVLE 0400   79 82  260/  8/ 10   N/A
5 SE WRIGHTSVLE  0408   82 83  220/  6/  8 1013.2
225 S CAPE HAT   0450   82 81  240/ 16/ 19 1016.7    6/ 8
41 SE CHARLESTON 0450   83 84  230/ 14/ 14 1013.3    5/ 8   3/ 8

$$


USA.gov is the U.S. government's official web portal to all federal, state and local government web resources and services.